Location: ???????????
(55.5758°N, 38.4970°E)
Time: 17:23:04
(UTC+00:00)

Cosmos 1461 - Pass Details

Date: 15 November 2025
Orbit: 429 x 518 km, 65.0° (Epoch: 14 December)

Event Time Altitude Azimuth Distance (km) Brightness Sun altitude
Exits shadow 04:12:18 - 316° (NW) 2,024 5.1 -6.9°
Reaches altitude 10° 04:12:57 10° 319° (NW) 1,777 4.9 -6.8°
Maximum altitude 04:16:42 38° 29° (NNE) 816 3.8 -6.3°
Drops below altitude 10° 04:20:24 10° 98° (E) 1,750 6.9 -5.8°
Sets 04:22:40 0° 107° (ESE) 2,623 8.7 -5.5°
